Date String (YYYY-MM-DD hh:mm:ss) UTC,Instrument flags,absolute air pressure of the measurement (hPa),sample flow rate (lpm),inlet stack bypass flow (lpm),air temperature of the measurement (°C),ambient temperature measured by the external sensor (°C),aerosol sample conditioner tube jacket temperature (°C),OPC LED temperature (°C),internal box temperature (°C),relative humidity of the measurement (%),span deviation,mass concentration of particles derived from Lorenz-Mie calculation of OPC scattering (μg/m³),mass concentration of particles derived from Lorenz-Mie calculation of OPC scattering (μg/m³),mass concentration of particles derived from Lorenz-Mie calculation of OPC scattering (μg/m³)
DateTimeUTC,F1_M11,P_M11,Q1_M11,Q2_M11,T1_M11,T2_M11,T3_M11,T4_M11,T5_M11,U1_M11,ZSPAN_M11,X2_M11,X0_M11,X1_M11
2024-03-29 17:00:00,SystemResetWarning,0823.2,5.00,000.00,018.8,018.3,000.0,027.1,020.5,29.6,0000.0,0003.37,0008.31,0002.65
2024-03-29 17:01:00,SystemResetWarning,0823.1,5.01,000.00,018.8,018.3,000.0,027.2,020.5,29.9,0000.0,0003.35,0008.04,0002.63
2024-03-29 17:02:00,SystemResetWarning,0823.1,5.00,000.00,018.8,018.3,000.0,027.2,020.6,29.4,0000.0,0003.35,0007.60,0002.63
2024-03-29 17:03:00,SystemResetWarning,0823.1,5.00,000.00,018.8,018.3,000.0,027.2,020.6,29.2,0000.0,0003.33,0007.44,0002.62
2024-03-29 17:04:00,SystemResetWarning,0823.1,5.01,000.00,018.8,018.4,000.0,027.2,020.6,29.0,0000.0,0003.29,0007.42,0002.61
2024-03-29 17:05:00,SystemResetWarning,0823.1,5.00,000.00,018.8,018.4,000.0,027.2,020.6,28.9,0000.0,0003.32,0007.51,0002.61
2024-03-29 17:06:00,SystemResetWarning,0823.1,5.00,000.00,018.8,018.4,000.0,027.2,020.6,28.6,0000.0,0003.29,0007.44,0002.59
2024-03-29 17:07:00,SystemResetWarning,0823.1,4.99,000.00,018.8,018.4,000.0,027.2,020.6,28.7,0000.0,0003.25,0007.36,0002.56
2024-03-29 17:08:00,SystemResetWarning,0823.1,4.99,000.00,018.8,018.4,000.0,027.2,020.6,29.1,0000.0,0003.24,0007.31,0002.54
2024-03-29 17:09:00,SystemResetWarning,0823.0,5.00,000.00,018.9,018.4,000.0,027.2,020.6,29.3,0000.0,0003.20,0006.95,0002.52
2024-03-29 17:10:00,SystemResetWarning,0823.0,5.01,000.00,018.9,018.4,000.0,027.2,020.6,29.3,0000.0,0003.24,0006.98,0002.52
2024-03-29 17:11:00,SystemResetWarning,0823.0,5.01,000.00,018.9,018.4,000.0,027.2,020.6,29.2,0000.0,0003.26,0006.47,0002.56
2024-03-29 17:12:00,SystemResetWarning,0823.2,5.00,000.00,018.9,018.4,000.0,027.3,020.6,29.2,0000.0,0003.29,0006.50,0002.58
2024-03-29 17:13:00,SystemResetWarning,0823.0,4.99,000.00,018.9,018.4,000.0,027.3,020.6,29.5,0000.0,0003.29,0006.93,0002.58
2024-03-29 17:14:00,SystemResetWarning,0822.9,5.00,000.00,018.9,018.4,000.0,027.3,020.6,29.9,0000.0,0003.32,0007.56,0002.61
2024-03-29 17:15:00,SystemResetWarning,0823.0,5.00,000.00,018.9,018.4,000.0,027.3,020.6,30.5,0000.0,0003.34,0007.54,0002.64
2024-03-29 17:16:00,SystemResetWarning,0822.9,5.01,000.00,018.9,018.4,000.0,027.3,020.6,32.0,0000.0,0003.33,0007.48,0002.64
2024-03-29 17:17:00,SystemResetWarning,0823.0,5.01,000.00,018.9,018.4,000.0,027.3,020.6,32.3,0000.0,0003.34,0007.51,0002.64
2024-03-29 17:18:00,SystemResetWarning,0823.0,4.99,000.00,018.9,018.4,000.0,027.3,020.6,33.4,0000.0,0003.36,0007.94,0002.65
2024-03-29 17:19:00,SystemResetWarning,0822.9,4.99,000.00,018.9,018.4,000.0,027.3,020.6,32.9,0000.0,0003.38,0008.09,0002.67
2024-03-29 17:20:00,SystemResetWarning,0823.0,5.00,000.00,018.9,018.4,000.0,027.3,020.7,31.2,0000.0,0003.39,0008.23,0002.67
2024-03-29 17:21:00,SystemResetWarning,0823.0,4.99,000.00,018.9,018.4,000.0,027.3,020.7,30.7,0000.0,0003.34,0008.17,0002.63
2024-03-29 17:22:00,SystemResetWarning,0823.0,5.00,000.00,018.9,018.4,000.0,027.3,020.7,30.6,0000.0,0003.32,0008.07,0002.60
2024-03-29 17:23:00,SystemResetWarning,0823.0,5.01,000.00,018.9,018.4,000.0,027.3,020.7,30.1,0000.0,0003.28,0008.21,0002.58
2024-03-29 17:24:00,SystemResetWarning,0823.0,5.01,000.00,018.9,018.5,000.0,027.3,020.7,30.0,0000.0,0003.30,0008.07,0002.59
2024-03-29 17:25:00,SystemResetWarning,0823.1,5.00,000.00,019.0,018.5,000.0,027.3,020.7,29.6,0000.0,0003.29,0007.58,0002.59
2024-03-29 17:26:00,SystemResetWarning,0823.1,4.99,000.00,019.0,018.5,000.0,027.4,020.7,30.0,0000.0,0003.29,0007.58,0002.59
2024-03-29 17:27:00,SystemResetWarning,0823.1,4.99,000.00,019.0,018.5,000.0,027.4,020.7,29.8,0000.0,0003.26,0007.57,0002.60
2024-03-29 17:28:00,SystemResetWarning,0823.1,5.00,000.00,019.0,018.5,000.0,027.4,020.7,30.2,0000.0,0003.28,0007.60,0002.61
2024-03-29 17:29:00,SystemResetWarning,0823.1,5.01,000.00,019.0,018.5,000.0,027.4,020.8,30.7,0000.0,0003.30,0007.10,0002.64
2024-03-29 17:30:00,SystemResetWarning,0823.1,5.00,000.00,019.0,018.6,000.0,027.4,020.8,30.4,0000.0,0003.32,0007.26,0002.67
2024-03-29 17:31:00,SystemResetWarning,0823.1,5.01,000.00,019.0,018.6,000.0,027.4,020.8,30.9,0000.0,0003.34,0007.38,0002.72
2024-03-29 17:32:00,SystemResetWarning,0823.1,5.00,000.00,019.0,018.6,000.0,027.4,020.8,30.0,0000.0,0003.40,0007.48,0002.79
2024-03-29 17:33:00,SystemResetWarning,0823.1,4.99,000.00,019.0,018.6,000.0,027.4,020.8,30.3,0000.0,0003.42,0007.83,0002.83
2024-03-29 17:34:00,SystemResetWarning,0823.1,4.99,000.00,019.1,018.6,000.0,027.4,020.8,30.2,0000.0,0003.45,0007.64,0002.89
2024-03-29 17:35:00,SystemResetWarning,0823.0,5.00,000.00,019.1,018.6,000.0,027.4,020.8,29.4,0000.0,0003.46,0007.59,0002.93
2024-03-29 17:36:00,SystemResetWarning,0823.1,5.00,000.00,019.1,018.6,000.0,027.4,020.8,30.2,0000.0,0003.44,0007.49,0002.96
2024-03-29 17:37:00,SystemResetWarning,0823.1,5.00,000.00,019.1,018.7,000.0,027.5,020.9,31.9,0000.0,0003.46,0007.52,0002.97
2024-03-29 17:38:00,SystemResetWarning,0823.0,5.00,000.00,019.1,018.7,000.0,027.5,020.9,31.2,0000.0,0003.51,0007.69,0002.99
2024-03-29 17:39:00,SystemResetWarning,0822.9,5.01,000.00,019.1,018.7,000.0,027.5,020.9,31.1,0000.0,0003.51,0008.27,0003.02
2024-03-29 17:40:00,SystemResetWarning,0822.9,5.00,000.00,019.1,018.7,000.0,027.5,020.9,31.4,0000.0,0003.52,0008.80,0003.04
2024-03-29 17:41:00,SystemResetWarning,0823.0,5.00,000.00,019.1,018.7,000.0,027.5,020.9,30.5,0000.0,0003.53,0008.66,0003.06
2024-03-29 17:42:00,SystemResetWarning,0823.0,5.00,000.00,019.2,018.7,000.0,027.5,020.9,31.0,0000.0,0003.53,0008.39,0003.08
2024-03-29 17:43:00,SystemResetWarning,0823.0,5.00,000.00,019.2,018.7,000.0,027.5,021.0,29.9,0000.0,0003.53,0008.41,0003.09
2024-03-29 17:44:00,SystemResetWarning,0823.0,5.00,000.00,019.2,018.8,000.0,027.5,021.0,30.7,0000.0,0003.54,0008.39,0003.10
2024-03-29 17:45:00,SystemResetWarning,0822.9,5.00,000.00,019.2,018.8,000.0,027.5,021.0,31.0,0000.0,0003.56,0008.69,0003.11
2024-03-29 17:46:00,SystemResetWarning,0822.9,5.00,000.00,019.2,018.8,000.0,027.5,021.0,29.4,0000.0,0003.56,0008.70,0003.11
2024-03-29 17:47:00,SystemResetWarning,0823.0,5.00,000.00,019.2,018.8,000.0,027.5,021.0,29.4,0000.0,0003.58,0008.74,0003.12
2024-03-29 17:48:00,SystemResetWarning,0823.0,5.00,000.00,019.2,018.8,000.0,027.6,021.0,30.4,0000.0,0003.60,0008.99,0003.14
2024-03-29 17:49:00,SystemResetWarning,0822.9,5.00,000.00,019.3,018.8,000.0,027.6,021.0,30.2,0000.0,0003.60,0009.03,0003.15
2024-03-29 17:50:00,SystemResetWarning,0823.0,5.00,000.00,019.3,018.8,000.0,027.6,021.0,31.4,0000.0,0003.60,0008.57,0003.16
2024-03-29 17:51:00,SystemResetWarning,0822.9,5.01,000.00,019.3,018.9,000.0,027.6,021.1,30.4,0000.0,0003.62,0008.12,0003.18
2024-03-29 17:52:00,SystemResetWarning,0822.9,5.01,000.00,019.3,018.9,000.0,027.6,021.1,29.9,0000.0,0003.65,0008.42,0003.20
2024-03-29 17:53:00,SystemResetWarning,0822.9,5.00,000.00,019.3,018.9,000.0,027.6,021.1,28.8,0000.0,0003.70,0008.50,0003.23
2024-03-29 17:54:00,SystemResetWarning,0822.9,4.99,000.00,019.3,018.9,000.0,027.6,021.1,29.5,0000.0,0003.74,0008.55,0003.24
2024-03-29 17:55:00,SystemResetWarning,0822.9,4.99,000.00,019.4,018.9,000.0,027.6,021.1,29.6,0000.0,0003.71,0008.06,0003.25
2024-03-29 17:56:00,SystemResetWarning,0822.9,5.01,000.00,019.4,018.9,000.0,027.7,021.1,30.0,0000.0,0003.72,0007.66,0003.27
2024-03-29 17:57:00,SystemResetWarning,0823.0,5.01,000.00,019.4,019.0,000.0,027.7,021.1,29.2,0000.0,0003.73,0007.78,0003.28
2024-03-29 17:58:00,SystemResetWarning,0822.9,5.01,000.00,019.4,019.0,000.0,027.7,021.2,29.6,0000.0,0003.77,0008.15,0003.30
2024-03-29 17:59:00,SystemResetWarning,0822.9,4.99,000.00,019.4,019.0,000.0,027.7,021.2,29.4,0000.0,0003.82,0008.56,0003.31
